Location: Nitra
(0.0000°N, 18.0833°E)
Time: 05:41:56
(UTC+01:00)

H-10 deb - Pass Details

Date: 24 January 2021
Orbit: 371 x 32714 km, 6.9° (Epoch: 04 March)

Event Time Altitude Azimuth Distance (km) Brightness Sun altitude
Rises 19:52:47 0° 265° (W) 2,225 6.1 -26.6°
Reaches altitude 10° 19:54:26 10° 257° (WSW) 1,362 4.8 -26.9°
Enters shadow 19:55:20 21° 246° (WSW) 945 3.8 -27.2°
